Time,TemperatureF,DewpointF,PressureIn,WindDirection,WindDirectionDegrees,WindSpeedMPH,WindSpeedGustMPH,Humidity,HourlyPrecipIn,Conditions,Clouds,dailyrainin,SoftwareType,DateUTC
2013-07-16 00:01:00,74.0,71.2,30.29,NE,45,0.0,0.0,91,0.00,,,0.00,WUHU216DAVISVP2,2013-07-16 04:01:00,
2013-07-16 00:02:00,74.0,71.5,30.29,NE,45,0.0,0.0,92,0.00,,,0.00,WUHU216DAVISVP2,2013-07-16 04:02:00,
2013-07-16 00:07:00,73.8,71.3,30.29,NE,45,0.0,0.0,92,0.00,,,0.00,WUHU216DAVISVP2,2013-07-16 04:07:00,
2013-07-16 00:12:00,73.7,71.2,30.29,NE,45,0.0,0.0,92,0.00,,,0.00,WUHU216DAVISVP2,2013-07-16 04:12:00,
2013-07-16 00:17:00,73.6,71.1,30.29,NE,45,0.0,0.0,92,0.00,,,0.00,WUHU216DAVISVP2,2013-07-16 04:17:00,
2013-07-16 00:22:00,73.5,71.0,30.29,NE,45,0.0,0.0,92,0.00,,,0.00,WUHU216DAVISVP2,2013-07-16 04:22:00,
2013-07-16 00:27:00,73.5,71.0,30.29,NE,45,0.0,0.0,92,0.00,,,0.00,WUHU216DAVISVP2,2013-07-16 04:27:00,
2013-07-16 00:32:00,73.4,70.9,30.29,NE,45,0.0,0.0,92,0.00,,,0.00,WUHU216DAVISVP2,2013-07-16 04:32:00,
2013-07-16 00:37:00,73.3,70.8,30.29,NE,45,0.0,0.0,92,0.00,,,0.00,WUHU216DAVISVP2,2013-07-16 04:37:00,
2013-07-16 00:43:00,73.2,70.7,30.29,NE,45,0.0,0.0,92,0.00,,,0.00,WUHU216DAVISVP2,2013-07-16 04:43:00,
2013-07-16 00:48:00,73.1,70.9,30.29,NE,45,0.0,0.0,93,0.00,,,0.00,WUHU216DAVISVP2,2013-07-16 04:48:00,
2013-07-16 00:53:00,73.1,70.9,30.29,NE,45,0.0,0.0,93,0.00,,,0.00,WUHU216DAVISVP2,2013-07-16 04:53:00,
2013-07-16 00:58:00,73.0,70.8,30.29,NE,45,0.0,0.0,93,0.00,,,0.00,WUHU216DAVISVP2,2013-07-16 04:58:00,
2013-07-16 01:04:00,73.1,70.9,30.29,NE,45,0.0,0.0,93,0.00,,,0.00,WUHU216DAVISVP2,2013-07-16 05:04:00,
2013-07-16 01:09:00,73.1,70.9,30.29,NE,45,0.0,0.0,93,0.00,,,0.00,WUHU216DAVISVP2,2013-07-16 05:09:00,
2013-07-16 01:14:00,73.1,70.9,30.29,NE,45,0.0,0.0,93,0.00,,,0.00,WUHU216DAVISVP2,2013-07-16 05:14:00,
2013-07-16 01:20:00,73.2,71.0,30.29,NE,45,0.0,0.0,93,0.00,,,0.00,WUHU216DAVISVP2,2013-07-16 05:20:00,
2013-07-16 01:25:00,73.2,71.0,30.29,NE,45,0.0,0.0,93,0.00,,,0.00,WUHU216DAVISVP2,2013-07-16 05:25:00,
2013-07-16 01:30:00,73.3,71.1,30.29,NE,45,0.0,0.0,93,0.00,,,0.00,WUHU216DAVISVP2,2013-07-16 05:30:00,
2013-07-16 01:35:00,73.3,71.1,30.29,NE,45,0.0,0.0,93,0.00,,,0.00,WUHU216DAVISVP2,2013-07-16 05:35:00,
2013-07-16 01:40:00,73.3,71.1,30.29,SSW,197,0.0,4.0,93,0.00,,,0.00,WUHU216DAVISVP2,2013-07-16 05:40:00,
2013-07-16 01:45:00,73.5,71.3,30.29,South,184,2.0,8.0,93,0.00,,,0.00,WUHU216DAVISVP2,2013-07-16 05:45:00,
2013-07-16 01:50:00,73.8,71.3,30.29,South,184,0.0,8.0,92,0.00,,,0.00,WUHU216DAVISVP2,2013-07-16 05:50:00,
2013-07-16 01:55:00,74.0,71.5,30.29,South,183,0.0,6.0,92,0.00,,,0.00,WUHU216DAVISVP2,2013-07-16 05:55:00,
2013-07-16 02:00:00,74.2,71.4,30.29,South,177,0.0,6.0,91,0.00,,,0.00,WUHU216DAVISVP2,2013-07-16 06:00:00,
2013-07-16 02:05:00,74.3,71.5,30.29,South,177,0.0,6.0,91,0.00,,,0.00,WUHU216DAVISVP2,2013-07-16 06:05:00,
2013-07-16 02:10:00,74.2,71.4,30.29,South,177,0.0,2.0,91,0.00,,,0.00,WUHU216DAVISVP2,2013-07-16 06:10:00,
2013-07-16 02:15:00,74.2,71.4,30.28,South,177,0.0,4.0,91,0.00,,,0.00,WUHU216DAVISVP2,2013-07-16 06:15:00,
2013-07-16 02:20:00,74.2,71.4,30.28,South,175,0.0,4.0,91,0.00,,,0.00,WUHU216DAVISVP2,2013-07-16 06:20:00,
2013-07-16 02:25:00,74.3,71.5,30.28,SE,127,0.0,6.0,91,0.00,,,0.00,WUHU216DAVISVP2,2013-07-16 06:25:00,
2013-07-16 02:30:00,74.3,71.5,30.28,SSE,159,0.0,6.0,91,0.00,,,0.00,WUHU216DAVISVP2,2013-07-16 06:30:00,
2013-07-16 02:35:00,74.4,71.6,30.28,SSW,202,0.0,6.0,91,0.00,,,0.00,WUHU216DAVISVP2,2013-07-16 06:35:00,
2013-07-16 02:40:00,74.4,71.6,30.28,SSW,194,4.0,8.0,91,0.00,,,0.00,WUHU216DAVISVP2,2013-07-16 06:40:00,
2013-07-16 02:45:00,74.5,71.7,30.28,South,184,0.0,8.0,91,0.00,,,0.00,WUHU216DAVISVP2,2013-07-16 06:45:00,
2013-07-16 02:50:00,74.5,71.7,30.28,South,184,0.0,6.0,91,0.00,,,0.00,WUHU216DAVISVP2,2013-07-16 06:50:00,
2013-07-16 02:56:00,74.5,71.7,30.27,South,190,0.0,6.0,91,0.00,,,0.00,WUHU216DAVISVP2,2013-07-16 06:56:00,
2013-07-16 03:01:00,74.4,71.6,30.27,South,185,0.0,6.0,91,0.00,,,0.00,WUHU216DAVISVP2,2013-07-16 07:01:00,
2013-07-16 03:06:00,74.3,71.8,30.28,SSE,167,0.0,6.0,92,0.00,,,0.00,WUHU216DAVISVP2,2013-07-16 07:06:00,
2013-07-16 03:11:00,74.3,71.8,30.28,SSE,167,0.0,6.0,92,0.00,,,0.00,WUHU216DAVISVP2,2013-07-16 07:11:00,
2013-07-16 03:16:00,74.2,71.7,30.28,SSE,168,0.0,4.0,92,0.00,,,0.00,WUHU216DAVISVP2,2013-07-16 07:16:00,
2013-07-16 03:21:00,74.1,71.6,30.28,SSE,168,0.0,2.0,92,0.00,,,0.00,WUHU216DAVISVP2,2013-07-16 07:21:00,
2013-07-16 03:26:00,74.1,71.6,30.28,SSE,168,0.0,2.0,92,0.00,,,0.00,WUHU216DAVISVP2,2013-07-16 07:26:00,
2013-07-16 03:31:00,74.1,71.6,30.28,South,188,0.0,8.0,92,0.00,,,0.00,WUHU216DAVISVP2,2013-07-16 07:31:00,
2013-07-16 03:36:00,74.1,71.6,30.28,South,182,0.0,8.0,92,0.00,,,0.00,WUHU216DAVISVP2,2013-07-16 07:36:00,
2013-07-16 03:41:00,74.1,71.6,30.28,South,177,0.0,4.0,92,0.00,,,0.00,WUHU216DAVISVP2,2013-07-16 07:41:00,
2013-07-16 03:46:00,74.0,71.8,30.28,South,177,0.0,4.0,93,0.00,,,0.00,WUHU216DAVISVP2,2013-07-16 07:46:00,
2013-07-16 03:51:00,74.2,72.0,30.28,South,179,2.0,8.0,93,0.00,,,0.00,WUHU216DAVISVP2,2013-07-16 07:51:00,
2013-07-16 03:56:00,74.4,72.2,30.28,South,171,0.0,8.0,93,0.00,,,0.00,WUHU216DAVISVP2,2013-07-16 07:56:00,
2013-07-16 04:01:00,74.6,72.4,30.28,South,187,0.0,8.0,93,0.00,,,0.00,WUHU216DAVISVP2,2013-07-16 08:01:00,
2013-07-16 04:06:00,74.7,72.5,30.28,South,187,2.0,8.0,93,0.00,,,0.00,WUHU216DAVISVP2,2013-07-16 08:06:00,
2013-07-16 04:11:00,74.8,72.3,30.28,South,189,0.0,8.0,92,0.00,,,0.00,WUHU216DAVISVP2,2013-07-16 08:11:00,
2013-07-16 04:16:00,74.9,72.4,30.28,South,187,0.0,8.0,92,0.00,,,0.00,WUHU216DAVISVP2,2013-07-16 08:16:00,
2013-07-16 04:22:00,74.9,72.4,30.28,South,187,0.0,4.0,92,0.00,,,0.00,WUHU216DAVISVP2,2013-07-16 08:22:00,
2013-07-16 04:27:00,74.8,72.3,30.28,South,187,0.0,0.0,92,0.00,,,0.00,WUHU216DAVISVP2,2013-07-16 08:27:00,
2013-07-16 04:32:00,74.5,72.0,30.28,South,187,0.0,0.0,92,0.00,,,0.00,WUHU216DAVISVP2,2013-07-16 08:32:00,
2013-07-16 04:37:00,74.2,71.7,30.28,South,187,0.0,0.0,92,0.00,,,0.00,WUHU216DAVISVP2,2013-07-16 08:37:00,
2013-07-16 04:42:00,74.0,71.8,30.29,South,187,0.0,0.0,93,0.00,,,0.00,WUHU216DAVISVP2,2013-07-16 08:42:00,
2013-07-16 04:47:00,73.5,71.3,30.29,South,187,0.0,0.0,93,0.00,,,0.00,WUHU216DAVISVP2,2013-07-16 08:47:00,
2013-07-16 04:52:00,73.2,71.0,30.29,South,187,0.0,0.0,93,0.00,,,0.00,WUHU216DAVISVP2,2013-07-16 08:52:00,
2013-07-16 04:57:00,72.8,70.6,30.29,South,187,0.0,0.0,93,0.00,,,0.00,WUHU216DAVISVP2,2013-07-16 08:57:00,
2013-07-16 05:02:00,72.6,70.7,30.29,South,187,0.0,0.0,94,0.00,,,0.00,WUHU216DAVISVP2,2013-07-16 09:02:00,
2013-07-16 05:07:00,72.4,70.5,30.29,South,187,0.0,2.0,94,0.00,,,0.00,WUHU216DAVISVP2,2013-07-16 09:07:00,
2013-07-16 05:12:00,72.3,70.4,30.29,South,187,0.0,2.0,94,0.00,,,0.00,WUHU216DAVISVP2,2013-07-16 09:12:00,
2013-07-16 05:17:00,72.1,70.2,30.29,South,187,0.0,0.0,94,0.00,,,0.00,WUHU216DAVISVP2,2013-07-16 09:17:00,
2013-07-16 05:22:00,72.0,70.5,30.30,South,187,0.0,0.0,95,0.00,,,0.00,WUHU216DAVISVP2,2013-07-16 09:22:00,
2013-07-16 05:28:00,71.9,70.4,30.30,South,187,0.0,0.0,95,0.00,,,0.00,WUHU216DAVISVP2,2013-07-16 09:28:00,
2013-07-16 05:33:00,71.9,70.4,30.30,South,187,0.0,0.0,95,0.00,,,0.00,WUHU216DAVISVP2,2013-07-16 09:33:00,
2013-07-16 05:38:00,71.8,70.3,30.30,South,187,0.0,0.0,95,0.00,,,0.00,WUHU216DAVISVP2,2013-07-16 09:38:00,
2013-07-16 05:43:00,71.8,70.6,30.30,South,187,0.0,0.0,96,0.00,,,0.00,WUHU216DAVISVP2,2013-07-16 09:43:00,
2013-07-16 05:48:00,71.7,70.5,30.30,South,187,0.0,0.0,96,0.00,,,0.00,WUHU216DAVISVP2,2013-07-16 09:48:00,
2013-07-16 05:53:00,71.7,70.5,30.30,South,187,0.0,0.0,96,0.00,,,0.00,WUHU216DAVISVP2,2013-07-16 09:53:00,
2013-07-16 05:58:00,71.6,70.4,30.30,South,187,0.0,0.0,96,0.00,,,0.00,WUHU216DAVISVP2,2013-07-16 09:58:00,
2013-07-16 06:03:00,71.6,70.4,30.30,South,187,0.0,0.0,96,0.00,,,0.00,WUHU216DAVISVP2,2013-07-16 10:03:00,
2013-07-16 06:08:00,71.6,70.4,30.30,South,187,0.0,0.0,96,0.00,,,0.00,WUHU216DAVISVP2,2013-07-16 10:08:00,
2013-07-16 06:13:00,71.6,70.4,30.30,South,187,0.0,0.0,96,0.00,,,0.00,WUHU216DAVISVP2,2013-07-16 10:13:00,
2013-07-16 06:18:00,71.6,70.4,30.30,South,187,0.0,0.0,96,0.00,,,0.00,WUHU216DAVISVP2,2013-07-16 10:18:00,
2013-07-16 06:23:00,71.6,70.4,30.30,South,187,0.0,0.0,96,0.00,,,0.00,WUHU216DAVISVP2,2013-07-16 10:23:00,
2013-07-16 06:28:00,71.6,70.4,30.30,South,187,0.0,0.0,96,0.00,,,0.00,WUHU216DAVISVP2,2013-07-16 10:28:00,
2013-07-16 06:33:00,71.6,70.7,30.30,South,187,0.0,0.0,97,0.00,,,0.00,WUHU216DAVISVP2,2013-07-16 10:33:00,
2013-07-16 06:38:00,71.6,70.7,30.30,South,187,0.0,0.0,97,0.00,,,0.00,WUHU216DAVISVP2,2013-07-16 10:38:00,
2013-07-16 06:43:00,71.6,70.7,30.30,South,187,0.0,0.0,97,0.00,,,0.00,WUHU216DAVISVP2,2013-07-16 10:43:00,
2013-07-16 06:48:00,71.7,70.8,30.31,South,187,0.0,0.0,97,0.00,,,0.00,WUHU216DAVISVP2,2013-07-16 10:48:00,
2013-07-16 06:53:00,71.8,70.9,30.31,South,187,0.0,0.0,97,0.00,,,0.00,WUHU216DAVISVP2,2013-07-16 10:53:00,
2013-07-16 06:58:00,71.8,70.9,30.31,South,187,0.0,0.0,97,0.00,,,0.00,WUHU216DAVISVP2,2013-07-16 10:58:00,
2013-07-16 07:03:00,71.9,71.0,30.31,South,187,0.0,0.0,97,0.00,,,0.00,WUHU216DAVISVP2,2013-07-16 11:03:00,
2013-07-16 07:08:00,72.0,71.1,30.31,South,187,0.0,0.0,97,0.00,,,0.00,WUHU216DAVISVP2,2013-07-16 11:08:00,
2013-07-16 07:13:00,72.1,71.2,30.31,South,187,0.0,2.0,97,0.00,,,0.00,WUHU216DAVISVP2,2013-07-16 11:13:00,
2013-07-16 07:18:00,72.2,71.3,30.31,South,187,0.0,2.0,97,0.00,,,0.00,WUHU216DAVISVP2,2013-07-16 11:18:00,
2013-07-16 07:24:00,72.3,71.4,30.31,South,187,0.0,0.0,97,0.00,,,0.00,WUHU216DAVISVP2,2013-07-16 11:24:00,
2013-07-16 07:29:00,72.6,71.7,30.31,South,187,0.0,0.0,97,0.00,,,0.00,WUHU216DAVISVP2,2013-07-16 11:29:00,
2013-07-16 07:34:00,72.8,71.9,30.31,South,187,0.0,0.0,97,0.00,,,0.00,WUHU216DAVISVP2,2013-07-16 11:34:00,
2013-07-16 07:39:00,73.1,72.2,30.31,South,187,0.0,0.0,97,0.00,,,0.00,WUHU216DAVISVP2,2013-07-16 11:39:00,
2013-07-16 07:44:00,73.5,72.6,30.31,South,187,0.0,0.0,97,0.00,,,0.00,WUHU216DAVISVP2,2013-07-16 11:44:00,
2013-07-16 07:49:00,73.9,73.0,30.31,South,187,0.0,2.0,97,0.00,,,0.00,WUHU216DAVISVP2,2013-07-16 11:49:00,
2013-07-16 07:54:00,74.3,73.1,30.31,South,187,0.0,2.0,96,0.00,,,0.00,WUHU216DAVISVP2,2013-07-16 11:54:00,
2013-07-16 07:59:00,74.7,73.1,30.31,South,187,0.0,0.0,95,0.00,,,0.00,WUHU216DAVISVP2,2013-07-16 11:59:00,
2013-07-16 08:04:00,75.3,73.7,30.32,South,187,0.0,0.0,95,0.00,,,0.00,WUHU216DAVISVP2,2013-07-16 12:04:00,
2013-07-16 08:09:00,75.8,73.9,30.32,South,187,0.0,0.0,94,0.00,,,0.00,WUHU216DAVISVP2,2013-07-16 12:09:00,
2013-07-16 08:14:00,76.3,74.1,30.32,South,187,0.0,0.0,93,0.00,,,0.00,WUHU216DAVISVP2,2013-07-16 12:14:00,
2013-07-16 08:19:00,76.9,74.4,30.32,South,187,0.0,0.0,92,0.00,,,0.00,WUHU216DAVISVP2,2013-07-16 12:19:00,
2013-07-16 08:24:00,77.5,74.7,30.32,South,187,0.0,0.0,91,0.00,,,0.00,WUHU216DAVISVP2,2013-07-16 12:24:00,
2013-07-16 08:29:00,78.0,74.8,30.32,South,187,0.0,0.0,90,0.00,,,0.00,WUHU216DAVISVP2,2013-07-16 12:29:00,
2013-07-16 08:34:00,78.5,75.0,30.32,South,187,0.0,2.0,89,0.00,,,0.00,WUHU216DAVISVP2,2013-07-16 12:34:00,
2013-07-16 08:39:00,79.1,75.3,30.32,South,187,0.0,2.0,88,0.00,,,0.00,WUHU216DAVISVP2,2013-07-16 12:39:00,
2013-07-16 08:45:00,79.6,75.4,30.32,South,187,0.0,0.0,87,0.00,,,0.00,WUHU216DAVISVP2,2013-07-16 12:45:00,
2013-07-16 08:50:00,80.2,75.7,30.32,South,187,0.0,0.0,86,0.00,,,0.00,WUHU216DAVISVP2,2013-07-16 12:50:00,
2013-07-16 08:55:00,80.7,75.1,30.32,West,260,0.0,4.0,83,0.00,,,0.00,WUHU216DAVISVP2,2013-07-16 12:55:00,
2013-07-16 09:00:00,81.1,74.8,30.32,WSW,257,0.0,4.0,81,0.00,,,0.00,WUHU216DAVISVP2,2013-07-16 13:00:00,
2013-07-16 09:05:00,81.6,75.3,30.32,SW,236,0.0,4.0,81,0.00,,,0.00,WUHU216DAVISVP2,2013-07-16 13:05:00,
2013-07-16 09:10:00,81.9,74.9,30.32,SW,236,0.0,4.0,79,0.00,,,0.00,WUHU216DAVISVP2,2013-07-16 13:10:00,
2013-07-16 09:15:00,82.1,75.1,30.32,SW,236,0.0,2.0,79,0.00,,,0.00,WUHU216DAVISVP2,2013-07-16 13:15:00,
2013-07-16 09:20:00,82.6,75.2,30.32,SW,230,0.0,2.0,78,0.00,,,0.00,WUHU216DAVISVP2,2013-07-16 13:20:00,
2013-07-16 09:25:00,83.1,75.7,30.32,SW,230,0.0,4.0,78,0.00,,,0.00,WUHU216DAVISVP2,2013-07-16 13:25:00,
2013-07-16 09:30:00,83.6,75.8,30.32,SW,230,0.0,4.0,77,0.00,,,0.00,WUHU216DAVISVP2,2013-07-16 13:30:00,
2013-07-16 09:35:00,84.1,75.9,30.32,SW,222,0.0,4.0,76,0.00,,,0.00,WUHU216DAVISVP2,2013-07-16 13:35:00,
2013-07-16 09:40:00,84.6,76.8,30.32,SW,222,0.0,4.0,77,0.00,,,0.00,WUHU216DAVISVP2,2013-07-16 13:40:00,
2013-07-16 09:45:00,84.7,76.5,30.32,SW,222,0.0,4.0,76,0.00,,,0.00,WUHU216DAVISVP2,2013-07-16 13:45:00,
2013-07-16 09:50:00,84.9,76.7,30.32,SW,222,0.0,2.0,76,0.00,,,0.00,WUHU216DAVISVP2,2013-07-16 13:50:00,
2013-07-16 09:55:00,85.1,76.9,30.32,SW,222,0.0,2.0,76,0.00,,,0.00,WUHU216DAVISVP2,2013-07-16 13:55:00,
2013-07-16 10:00:00,85.0,76.0,30.32,NE,38,6.0,6.0,74,0.00,,,0.00,WUHU216DAVISVP2,2013-07-16 14:00:00,
2013-07-16 10:05:00,85.0,76.0,30.32,NE,37,0.0,6.0,74,0.00,,,0.00,WUHU216DAVISVP2,2013-07-16 14:05:00,
2013-07-16 10:10:00,85.0,76.4,30.32,NW,304,0.0,4.0,75,0.00,,,0.00,WUHU216DAVISVP2,2013-07-16 14:10:00,
2013-07-16 10:15:00,85.1,76.5,30.32,NE,38,0.0,4.0,75,0.00,,,0.00,WUHU216DAVISVP2,2013-07-16 14:15:00,
2013-07-16 10:21:00,85.0,77.2,30.32,NE,38,0.0,4.0,77,0.00,,,0.00,WUHU216DAVISVP2,2013-07-16 14:21:00,
2013-07-16 10:26:00,85.2,76.6,30.32,NE,38,0.0,2.0,75,0.00,,,0.00,WUHU216DAVISVP2,2013-07-16 14:26:00,
2013-07-16 10:31:00,85.5,76.9,30.32,NE,38,0.0,2.0,75,0.00,,,0.00,WUHU216DAVISVP2,2013-07-16 14:31:00,
2013-07-16 10:36:00,86.1,76.7,30.32,NE,38,0.0,2.0,73,0.00,,,0.00,WUHU216DAVISVP2,2013-07-16 14:36:00,
2013-07-16 10:41:00,86.1,76.3,30.32,SW,236,2.0,4.0,72,0.00,,,0.00,WUHU216DAVISVP2,2013-07-16 14:41:00,
2013-07-16 10:46:00,86.3,76.4,30.32,SW,236,0.0,4.0,72,0.00,,,0.00,WUHU216DAVISVP2,2013-07-16 14:46:00,
2013-07-16 10:51:00,86.4,76.9,30.32,SW,236,2.0,4.0,73,0.00,,,0.00,WUHU216DAVISVP2,2013-07-16 14:51:00,
2013-07-16 10:56:00,86.3,76.0,30.32,SW,236,0.0,2.0,71,0.00,,,0.00,WUHU216DAVISVP2,2013-07-16 14:56:00,
2013-07-16 11:01:00,86.3,76.0,30.32,NW,315,2.0,6.0,71,0.00,,,0.00,WUHU216DAVISVP2,2013-07-16 15:01:00,
2013-07-16 11:06:00,86.1,76.3,30.31,NNW,334,4.0,6.0,72,0.00,,,0.00,WUHU216DAVISVP2,2013-07-16 15:06:00,
2013-07-16 11:11:00,86.5,77.0,30.31,NE,52,0.0,4.0,73,0.00,,,0.00,WUHU216DAVISVP2,2013-07-16 15:11:00,
2013-07-16 11:16:00,86.9,76.6,30.31,South,174,0.0,6.0,71,0.00,,,0.00,WUHU216DAVISVP2,2013-07-16 15:16:00,
2013-07-16 11:21:00,87.0,76.7,30.31,South,175,0.0,6.0,71,0.00,,,0.00,WUHU216DAVISVP2,2013-07-16 15:21:00,
2013-07-16 11:26:00,86.9,76.2,30.31,NE,51,0.0,6.0,70,0.00,,,0.00,WUHU216DAVISVP2,2013-07-16 15:26:00,
2013-07-16 11:31:00,86.9,76.2,30.31,NNE,25,0.0,6.0,70,0.00,,,0.00,WUHU216DAVISVP2,2013-07-16 15:31:00,
2013-07-16 11:36:00,86.9,77.0,30.31,NE,47,0.0,6.0,72,0.00,,,0.00,WUHU216DAVISVP2,2013-07-16 15:36:00,
2013-07-16 11:41:00,87.4,76.7,30.31,NE,36,0.0,4.0,70,0.00,,,0.00,WUHU216DAVISVP2,2013-07-16 15:41:00,
2013-07-16 11:46:00,87.5,76.8,30.31,ENE,69,0.0,4.0,70,0.00,,,0.00,WUHU216DAVISVP2,2013-07-16 15:46:00,
2013-07-16 11:51:00,87.6,76.9,30.31,NE,41,0.0,4.0,70,0.00,,,0.00,WUHU216DAVISVP2,2013-07-16 15:51:00,
2013-07-16 11:56:00,87.4,76.7,30.30,WNW,288,4.0,6.0,70,0.00,,,0.00,WUHU216DAVISVP2,2013-07-16 15:56:00,
2013-07-16 12:02:00,86.9,76.2,30.31,NE,46,0.0,6.0,70,0.00,,,0.00,WUHU216DAVISVP2,2013-07-16 16:02:00,
2013-07-16 12:07:00,87.4,76.7,30.31,NE,51,0.0,4.0,70,0.00,,,0.00,WUHU216DAVISVP2,2013-07-16 16:07:00,
2013-07-16 12:12:00,87.9,76.7,30.31,NE,48,4.0,4.0,69,0.00,,,0.00,WUHU216DAVISVP2,2013-07-16 16:12:00,
2013-07-16 12:17:00,87.9,76.7,30.30,NE,51,2.0,4.0,69,0.00,,,0.00,WUHU216DAVISVP2,2013-07-16 16:17:00,
2013-07-16 12:22:00,88.1,76.5,30.30,NNE,18,2.0,6.0,68,0.00,,,0.00,WUHU216DAVISVP2,2013-07-16 16:22:00,
2013-07-16 12:27:00,88.2,76.6,30.30,NNW,330,2.0,6.0,68,0.00,,,0.00,WUHU216DAVISVP2,2013-07-16 16:27:00,
2013-07-16 12:32:00,88.0,76.8,30.30,North,355,0.0,4.0,69,0.00,,,0.00,WUHU216DAVISVP2,2013-07-16 16:32:00,
2013-07-16 12:37:00,88.0,76.8,30.30,NNW,347,0.0,4.0,69,0.00,,,0.00,WUHU216DAVISVP2,2013-07-16 16:37:00,
2013-07-16 12:42:00,88.4,77.2,30.30,SW,214,4.0,4.0,69,0.00,,,0.00,WUHU216DAVISVP2,2013-07-16 16:42:00,
2013-07-16 12:47:00,88.3,76.2,30.30,West,271,0.0,6.0,67,0.00,,,0.00,WUHU216DAVISVP2,2013-07-16 16:47:00,
2013-07-16 12:52:00,88.5,76.4,30.30,West,269,2.0,6.0,67,0.00,,,0.00,WUHU216DAVISVP2,2013-07-16 16:52:00,
2013-07-16 12:57:00,88.7,77.1,30.30,North,5,0.0,4.0,68,0.00,,,0.00,WUHU216DAVISVP2,2013-07-16 16:57:00,
2013-07-16 13:02:00,89.0,76.0,30.30,WSW,244,0.0,6.0,65,0.00,,,0.00,WUHU216DAVISVP2,2013-07-16 17:02:00,
2013-07-16 13:07:00,88.8,76.7,30.30,ENE,61,2.0,6.0,67,0.00,,,0.00,WUHU216DAVISVP2,2013-07-16 17:07:00,
2013-07-16 13:12:00,88.3,75.8,30.30,NNW,342,4.0,6.0,66,0.00,,,0.00,WUHU216DAVISVP2,2013-07-16 17:12:00,
2013-07-16 13:17:00,88.1,76.5,30.30,WSW,238,2.0,4.0,68,0.00,,,0.00,WUHU216DAVISVP2,2013-07-16 17:17:00,
2013-07-16 13:22:00,87.7,76.1,30.30,WSW,239,0.0,4.0,68,0.00,,,0.00,WUHU216DAVISVP2,2013-07-16 17:22:00,
2013-07-16 13:27:00,87.4,76.2,30.30,SE,137,0.0,4.0,69,0.00,,,0.00,WUHU216DAVISVP2,2013-07-16 17:27:00,
2013-07-16 13:32:00,87.3,76.6,30.30,ENE,57,2.0,8.0,70,0.00,,,0.00,WUHU216DAVISVP2,2013-07-16 17:32:00,
2013-07-16 13:37:00,87.5,76.8,30.30,NNE,28,0.0,10.0,70,0.00,,,0.00,WUHU216DAVISVP2,2013-07-16 17:37:00,
2013-07-16 13:42:00,87.6,77.3,30.30,NNE,13,0.0,10.0,71,0.00,,,0.00,WUHU216DAVISVP2,2013-07-16 17:42:00,
2013-07-16 13:47:00,87.9,76.7,30.30,ENE,58,0.0,8.0,69,0.00,,,0.00,WUHU216DAVISVP2,2013-07-16 17:47:00,
2013-07-16 13:52:00,87.9,76.7,30.30,West,265,4.0,8.0,69,0.00,,,0.00,WUHU216DAVISVP2,2013-07-16 17:52:00,
2013-07-16 13:57:00,87.6,76.9,30.30,SW,235,0.0,4.0,70,0.00,,,0.00,WUHU216DAVISVP2,2013-07-16 17:57:00,
2013-07-16 14:02:00,87.5,76.3,30.30,NE,36,2.0,6.0,69,0.00,,,0.00,WUHU216DAVISVP2,2013-07-16 18:02:00,
2013-07-16 14:07:00,87.2,76.1,30.30,NNE,17,4.0,6.0,69,0.00,,,0.00,WUHU216DAVISVP2,2013-07-16 18:07:00,
2013-07-16 14:12:00,87.2,76.5,30.30,East,94,4.0,10.0,70,0.00,,,0.00,WUHU216DAVISVP2,2013-07-16 18:12:00,
2013-07-16 14:17:00,87.3,76.2,30.30,North,355,4.0,10.0,69,0.00,,,0.00,WUHU216DAVISVP2,2013-07-16 18:17:00,
2013-07-16 14:22:00,87.5,75.9,30.30,NNW,337,2.0,4.0,68,0.00,,,0.00,WUHU216DAVISVP2,2013-07-16 18:22:00,
2013-07-16 14:27:00,87.7,76.1,30.30,East,84,0.0,6.0,68,0.00,,,0.00,WUHU216DAVISVP2,2013-07-16 18:27:00,
2013-07-16 14:33:00,87.5,76.3,30.29,NW,317,0.0,12.0,69,0.00,,,0.00,WUHU216DAVISVP2,2013-07-16 18:33:00,
2013-07-16 14:38:00,87.4,76.2,30.29,NNW,343,4.0,12.0,69,0.00,,,0.00,WUHU216DAVISVP2,2013-07-16 18:38:00,
2013-07-16 14:43:00,87.5,77.2,30.29,NNE,33,0.0,6.0,71,0.00,,,0.00,WUHU216DAVISVP2,2013-07-16 18:43:00,
2013-07-16 14:48:00,87.5,75.9,30.28,NW,320,0.0,6.0,68,0.00,,,0.00,WUHU216DAVISVP2,2013-07-16 18:48:00,
2013-07-16 14:53:00,87.4,75.8,30.28,NE,35,0.0,6.0,68,0.00,,,0.00,WUHU216DAVISVP2,2013-07-16 18:53:00,
2013-07-16 14:58:00,87.5,75.5,30.29,NW,320,0.0,6.0,67,0.00,,,0.00,WUHU216DAVISVP2,2013-07-16 18:58:00,
2013-07-16 15:03:00,87.0,75.4,30.28,NW,318,2.0,6.0,68,0.00,,,0.00,WUHU216DAVISVP2,2013-07-16 19:03:00,
2013-07-16 15:08:00,86.9,75.8,30.28,NW,318,0.0,4.0,69,0.00,,,0.00,WUHU216DAVISVP2,2013-07-16 19:08:00,
2013-07-16 15:13:00,87.1,76.4,30.28,West,278,2.0,4.0,70,0.00,,,0.00,WUHU216DAVISVP2,2013-07-16 19:13:00,
2013-07-16 15:18:00,87.4,76.2,30.28,West,268,2.0,6.0,69,0.00,,,0.00,WUHU216DAVISVP2,2013-07-16 19:18:00,
2013-07-16 15:23:00,87.4,75.4,30.28,NW,304,0.0,6.0,67,0.00,,,0.00,WUHU216DAVISVP2,2013-07-16 19:23:00,
2013-07-16 15:28:00,87.5,75.5,30.28,WNW,302,0.0,4.0,67,0.00,,,0.00,WUHU216DAVISVP2,2013-07-16 19:28:00,
2013-07-16 15:33:00,87.6,75.6,30.28,NNE,22,2.0,6.0,67,0.00,,,0.00,WUHU216DAVISVP2,2013-07-16 19:33:00,
2013-07-16 15:38:00,87.7,75.7,30.28,ENE,62,2.0,14.0,67,0.00,,,0.00,WUHU216DAVISVP2,2013-07-16 19:38:00,
2013-07-16 15:43:00,87.9,76.3,30.28,NE,51,2.0,14.0,68,0.00,,,0.00,WUHU216DAVISVP2,2013-07-16 19:43:00,
2013-07-16 15:48:00,88.3,75.8,30.28,West,261,4.0,8.0,66,0.00,,,0.00,WUHU216DAVISVP2,2013-07-16 19:48:00,
2013-07-16 15:53:00,88.4,76.8,30.28,NE,41,4.0,8.0,68,0.00,,,0.00,WUHU216DAVISVP2,2013-07-16 19:53:00,
2013-07-16 15:58:00,88.3,75.8,30.28,ESE,118,2.0,6.0,66,0.00,,,0.00,WUHU216DAVISVP2,2013-07-16 19:58:00,
2013-07-16 16:03:00,88.4,75.9,30.28,East,91,4.0,6.0,66,0.00,,,0.00,WUHU216DAVISVP2,2013-07-16 20:03:00,
2013-07-16 16:08:00,88.2,76.1,30.28,ENE,59,2.0,6.0,67,0.00,,,0.00,WUHU216DAVISVP2,2013-07-16 20:08:00,
2013-07-16 16:13:00,88.1,76.0,30.28,SW,229,6.0,6.0,67,0.00,,,0.00,WUHU216DAVISVP2,2013-07-16 20:13:00,
2013-07-16 16:18:00,88.0,75.5,30.28,NE,54,0.0,6.0,66,0.00,,,0.00,WUHU216DAVISVP2,2013-07-16 20:18:00,
2013-07-16 16:23:00,88.0,77.3,30.28,North,355,2.0,6.0,70,0.00,,,0.00,WUHU216DAVISVP2,2013-07-16 20:23:00,
2013-07-16 16:28:00,88.0,76.4,30.28,WNW,284,2.0,4.0,68,0.00,,,0.00,WUHU216DAVISVP2,2013-07-16 20:28:00,
2013-07-16 16:33:00,87.9,75.9,30.28,North,5,2.0,4.0,67,0.00,,,0.00,WUHU216DAVISVP2,2013-07-16 20:33:00,
2013-07-16 16:38:00,87.9,76.7,30.28,NE,51,0.0,6.0,69,0.00,,,0.00,WUHU216DAVISVP2,2013-07-16 20:38:00,
2013-07-16 16:43:00,88.4,77.2,30.28,NE,51,0.0,6.0,69,0.00,,,0.00,WUHU216DAVISVP2,2013-07-16 20:43:00,
2013-07-16 16:48:00,88.1,75.6,30.28,NW,319,0.0,6.0,66,0.00,,,0.00,WUHU216DAVISVP2,2013-07-16 20:48:00,
2013-07-16 16:54:00,87.7,76.5,30.28,SE,129,0.0,6.0,69,0.00,,,0.00,WUHU216DAVISVP2,2013-07-16 20:54:00,
2013-07-16 16:59:00,87.9,76.3,30.28,East,84,2.0,4.0,68,0.00,,,0.00,WUHU216DAVISVP2,2013-07-16 20:59:00,
2013-07-16 17:04:00,88.1,76.5,30.28,NE,53,0.0,4.0,68,0.00,,,0.00,WUHU216DAVISVP2,2013-07-16 21:04:00,
2013-07-16 17:09:00,88.1,76.5,30.28,NE,53,2.0,4.0,68,0.00,,,0.00,WUHU216DAVISVP2,2013-07-16 21:09:00,
2013-07-16 17:14:00,87.7,74.8,30.28,NE,41,0.0,4.0,65,0.00,,,0.00,WUHU216DAVISVP2,2013-07-16 21:14:00,
2013-07-16 17:19:00,87.3,76.2,30.27,ENE,67,0.0,8.0,69,0.00,,,0.00,WUHU216DAVISVP2,2013-07-16 21:19:00,
2013-07-16 17:24:00,87.2,76.1,30.27,SW,234,2.0,8.0,69,0.00,,,0.00,WUHU216DAVISVP2,2013-07-16 21:24:00,
2013-07-16 17:29:00,87.4,75.8,30.27,NE,37,0.0,4.0,68,0.00,,,0.00,WUHU216DAVISVP2,2013-07-16 21:29:00,
2013-07-16 17:34:00,87.4,75.8,30.27,ENE,58,0.0,8.0,68,0.00,,,0.00,WUHU216DAVISVP2,2013-07-16 21:34:00,
2013-07-16 17:39:00,87.2,76.5,30.27,NE,55,0.0,8.0,70,0.00,,,0.00,WUHU216DAVISVP2,2013-07-16 21:39:00,
2013-07-16 17:44:00,87.3,76.2,30.27,NE,55,0.0,2.0,69,0.00,,,0.00,WUHU216DAVISVP2,2013-07-16 21:44:00,
2013-07-16 17:49:00,87.4,76.7,30.27,NE,40,0.0,4.0,70,0.00,,,0.00,WUHU216DAVISVP2,2013-07-16 21:49:00,
2013-07-16 17:54:00,87.7,76.5,30.27,NE,40,0.0,4.0,69,0.00,,,0.00,WUHU216DAVISVP2,2013-07-16 21:54:00,
2013-07-16 17:59:00,87.6,76.9,30.26,NE,44,0.0,2.0,70,0.00,,,0.00,WUHU216DAVISVP2,2013-07-16 21:59:00,
2013-07-16 18:04:00,87.4,76.7,30.26,WSW,246,0.0,4.0,70,0.00,,,0.00,WUHU216DAVISVP2,2013-07-16 22:04:00,
2013-07-16 18:09:00,87.0,75.9,30.26,NNE,18,2.0,4.0,69,0.00,,,0.00,WUHU216DAVISVP2,2013-07-16 22:09:00,
2013-07-16 18:14:00,86.6,75.5,30.26,NNE,19,0.0,4.0,69,0.00,,,0.00,WUHU216DAVISVP2,2013-07-16 22:14:00,
2013-07-16 18:19:00,86.1,75.8,30.25,NNE,19,2.0,4.0,71,0.00,,,0.00,WUHU216DAVISVP2,2013-07-16 22:19:00,
2013-07-16 18:24:00,85.9,76.5,30.25,SW,231,0.0,6.0,73,0.00,,,0.00,WUHU216DAVISVP2,2013-07-16 22:24:00,
2013-07-16 18:29:00,85.8,76.0,30.25,SW,231,0.0,6.0,72,0.00,,,0.00,WUHU216DAVISVP2,2013-07-16 22:29:00,
2013-07-16 18:34:00,85.7,75.5,30.25,SW,230,0.0,2.0,71,0.00,,,0.00,WUHU216DAVISVP2,2013-07-16 22:34:00,
2013-07-16 18:39:00,85.6,75.4,30.25,NNE,24,0.0,4.0,71,0.00,,,0.00,WUHU216DAVISVP2,2013-07-16 22:39:00,
2013-07-16 18:44:00,85.4,74.8,30.25,SSW,209,0.0,4.0,70,0.00,,,0.00,WUHU216DAVISVP2,2013-07-16 22:44:00,
2013-07-16 18:49:00,85.2,74.6,30.25,SSW,209,2.0,4.0,70,0.00,,,0.00,WUHU216DAVISVP2,2013-07-16 22:49:00,
2013-07-16 18:54:00,85.1,74.5,30.26,West,275,0.0,4.0,70,0.00,,,0.00,WUHU216DAVISVP2,2013-07-16 22:54:00,
2013-07-16 18:59:00,84.8,74.6,30.26,WNW,284,0.0,4.0,71,0.00,,,0.00,WUHU216DAVISVP2,2013-07-16 22:59:00,
2013-07-16 19:04:00,84.7,74.5,30.26,NW,321,0.0,4.0,71,0.00,,,0.00,WUHU216DAVISVP2,2013-07-16 23:04:00,
2013-07-16 19:10:00,84.7,75.3,30.26,NW,321,0.0,4.0,73,0.00,,,0.00,WUHU216DAVISVP2,2013-07-16 23:10:00,
2013-07-16 19:15:00,84.5,75.1,30.26,WSW,241,0.0,4.0,73,0.00,,,0.00,WUHU216DAVISVP2,2013-07-16 23:15:00,
2013-07-16 19:20:00,84.5,75.5,30.27,WSW,242,0.0,4.0,74,0.00,,,0.00,WUHU216DAVISVP2,2013-07-16 23:20:00,
2013-07-16 19:25:00,84.2,75.2,30.27,WSW,242,0.0,2.0,74,0.00,,,0.00,WUHU216DAVISVP2,2013-07-16 23:25:00,
2013-07-16 19:30:00,84.0,75.0,30.27,WSW,242,0.0,2.0,74,0.00,,,0.00,WUHU216DAVISVP2,2013-07-16 23:30:00,
2013-07-16 19:35:00,83.9,75.3,30.27,WSW,242,2.0,2.0,75,0.00,,,0.00,WUHU216DAVISVP2,2013-07-16 23:35:00,
2013-07-16 19:40:00,83.7,75.1,30.27,WSW,242,0.0,2.0,75,0.00,,,0.00,WUHU216DAVISVP2,2013-07-16 23:40:00,
2013-07-16 19:45:00,83.5,74.9,30.28,WSW,242,0.0,2.0,75,0.00,,,0.00,WUHU216DAVISVP2,2013-07-16 23:45:00,
2013-07-16 19:50:00,83.4,75.2,30.27,WSW,242,0.0,2.0,76,0.00,,,0.00,WUHU216DAVISVP2,2013-07-16 23:50:00,
2013-07-16 19:55:00,83.3,74.7,30.27,WSW,242,0.0,2.0,75,0.00,,,0.00,WUHU216DAVISVP2,2013-07-16 23:55:00,
2013-07-16 20:00:00,83.2,75.0,30.27,WSW,242,0.0,2.0,76,0.00,,,0.00,WUHU216DAVISVP2,2013-07-17 00:00:00,
2013-07-16 20:05:00,83.1,74.9,30.28,WSW,242,0.0,2.0,76,0.00,,,0.00,WUHU216DAVISVP2,2013-07-17 00:05:00,
2013-07-16 20:10:00,83.0,74.8,30.27,WSW,242,0.0,0.0,76,0.00,,,0.00,WUHU216DAVISVP2,2013-07-17 00:10:00,
2013-07-16 20:15:00,82.8,74.6,30.27,WSW,242,0.0,0.0,76,0.00,,,0.00,WUHU216DAVISVP2,2013-07-17 00:15:00,
2013-07-16 20:20:00,82.7,74.5,30.27,WSW,242,0.0,0.0,76,0.00,,,0.00,WUHU216DAVISVP2,2013-07-17 00:20:00,
2013-07-16 20:25:00,82.7,75.7,30.28,WSW,242,0.0,0.0,79,0.00,,,0.00,WUHU216DAVISVP2,2013-07-17 00:25:00,
2013-07-16 20:30:00,82.4,75.0,30.28,WSW,242,0.0,0.0,78,0.00,,,0.00,WUHU216DAVISVP2,2013-07-17 00:30:00,
2013-07-16 20:35:00,82.1,75.1,30.28,WSW,242,0.0,0.0,79,0.00,,,0.00,WUHU216DAVISVP2,2013-07-17 00:35:00,
2013-07-16 20:40:00,81.7,74.7,30.28,WSW,242,0.0,0.0,79,0.00,,,0.00,WUHU216DAVISVP2,2013-07-17 00:40:00,
2013-07-16 20:45:00,81.4,74.8,30.27,WSW,242,0.0,0.0,80,0.00,,,0.00,WUHU216DAVISVP2,2013-07-17 00:45:00,
2013-07-16 20:50:00,81.1,74.8,30.27,WSW,242,0.0,0.0,81,0.00,,,0.00,WUHU216DAVISVP2,2013-07-17 00:50:00,
2013-07-16 20:56:00,80.7,74.4,30.27,WSW,242,0.0,0.0,81,0.00,,,0.00,WUHU216DAVISVP2,2013-07-17 00:56:00,
2013-07-16 21:01:00,80.4,74.8,30.27,WSW,242,0.0,0.0,83,0.00,,,0.00,WUHU216DAVISVP2,2013-07-17 01:01:00,
2013-07-16 21:06:00,80.2,74.6,30.27,WSW,242,0.0,0.0,83,0.00,,,0.00,WUHU216DAVISVP2,2013-07-17 01:06:00,
2013-07-16 21:11:00,80.0,74.4,30.27,WSW,242,0.0,0.0,83,0.00,,,0.00,WUHU216DAVISVP2,2013-07-17 01:11:00,
2013-07-16 21:16:00,79.6,74.4,30.27,WSW,242,0.0,0.0,84,0.00,,,0.00,WUHU216DAVISVP2,2013-07-17 01:16:00,
2013-07-16 21:21:00,79.3,74.1,30.27,WSW,242,0.0,0.0,84,0.00,,,0.00,WUHU216DAVISVP2,2013-07-17 01:21:00,
2013-07-16 21:26:00,79.0,74.2,30.27,WSW,242,0.0,0.0,85,0.00,,,0.00,WUHU216DAVISVP2,2013-07-17 01:26:00,
2013-07-16 21:31:00,78.8,74.0,30.27,WSW,242,0.0,0.0,85,0.00,,,0.00,WUHU216DAVISVP2,2013-07-17 01:31:00,
2013-07-16 21:36:00,78.5,73.7,30.27,WSW,242,0.0,0.0,85,0.00,,,0.00,WUHU216DAVISVP2,2013-07-17 01:36:00,
2013-07-16 21:41:00,78.2,73.7,30.27,WSW,242,0.0,0.0,86,0.00,,,0.00,WUHU216DAVISVP2,2013-07-17 01:41:00,
2013-07-16 21:46:00,77.9,73.4,30.27,WSW,242,0.0,0.0,86,0.00,,,0.00,WUHU216DAVISVP2,2013-07-17 01:46:00,
2013-07-16 21:51:00,77.6,73.4,30.27,WSW,242,0.0,0.0,87,0.00,,,0.00,WUHU216DAVISVP2,2013-07-17 01:51:00,
2013-07-16 21:56:00,77.4,73.2,30.27,WSW,242,0.0,0.0,87,0.00,,,0.00,WUHU216DAVISVP2,2013-07-17 01:56:00,
2013-07-16 22:01:00,77.1,73.3,30.28,WSW,242,0.0,0.0,88,0.00,,,0.00,WUHU216DAVISVP2,2013-07-17 02:01:00,
2013-07-16 22:06:00,76.9,73.1,30.28,WSW,242,0.0,0.0,88,0.00,,,0.00,WUHU216DAVISVP2,2013-07-17 02:06:00,
2013-07-16 22:11:00,76.7,72.9,30.28,WSW,242,0.0,0.0,88,0.00,,,0.00,WUHU216DAVISVP2,2013-07-17 02:11:00,
2013-07-16 22:16:00,76.6,73.1,30.28,WSW,242,0.0,0.0,89,0.00,,,0.00,WUHU216DAVISVP2,2013-07-17 02:16:00,
2013-07-16 22:21:00,76.4,72.9,30.28,WSW,242,0.0,0.0,89,0.00,,,0.00,WUHU216DAVISVP2,2013-07-17 02:21:00,
2013-07-16 22:26:00,76.2,73.0,30.28,WSW,242,0.0,0.0,90,0.00,,,0.00,WUHU216DAVISVP2,2013-07-17 02:26:00,
2013-07-16 22:32:00,76.1,72.9,30.27,WSW,242,0.0,0.0,90,0.00,,,0.00,WUHU216DAVISVP2,2013-07-17 02:32:00,
2013-07-16 22:37:00,76.0,72.8,30.28,WSW,242,0.0,0.0,90,0.00,,,0.00,WUHU216DAVISVP2,2013-07-17 02:37:00,
2013-07-16 22:41:00,75.8,73.0,30.27,WSW,242,0.0,0.0,91,0.00,,,0.00,WUHU216DAVISVP2,2013-07-17 02:41:00,
2013-07-16 22:47:00,75.7,72.9,30.28,WSW,242,0.0,0.0,91,0.00,,,0.00,WUHU216DAVISVP2,2013-07-17 02:47:00,
2013-07-16 22:52:00,75.6,72.8,30.27,WSW,242,0.0,0.0,91,0.00,,,0.00,WUHU216DAVISVP2,2013-07-17 02:52:00,
2013-07-16 22:57:00,75.5,72.7,30.27,WSW,242,0.0,0.0,91,0.00,,,0.00,WUHU216DAVISVP2,2013-07-17 02:57:00,
2013-07-16 23:02:00,75.4,72.9,30.27,WSW,242,0.0,0.0,92,0.00,,,0.00,WUHU216DAVISVP2,2013-07-17 03:02:00,
2013-07-16 23:07:00,75.3,72.8,30.27,WSW,242,0.0,0.0,92,0.00,,,0.00,WUHU216DAVISVP2,2013-07-17 03:07:00,
2013-07-16 23:12:00,75.2,72.7,30.27,WSW,242,0.0,0.0,92,0.00,,,0.00,WUHU216DAVISVP2,2013-07-17 03:12:00,
2013-07-16 23:17:00,75.1,72.9,30.27,WSW,242,0.0,0.0,93,0.00,,,0.00,WUHU216DAVISVP2,2013-07-17 03:17:00,
2013-07-16 23:22:00,75.1,72.9,30.27,WSW,242,0.0,0.0,93,0.00,,,0.00,WUHU216DAVISVP2,2013-07-17 03:22:00,
2013-07-16 23:27:00,75.1,72.9,30.27,WSW,242,0.0,0.0,93,0.00,,,0.00,WUHU216DAVISVP2,2013-07-17 03:27:00,
2013-07-16 23:32:00,75.0,72.8,30.27,WSW,242,0.0,0.0,93,0.00,,,0.00,WUHU216DAVISVP2,2013-07-17 03:32:00,
2013-07-16 23:37:00,75.0,72.8,30.27,WSW,242,0.0,0.0,93,0.00,,,0.00,WUHU216DAVISVP2,2013-07-17 03:37:00,
2013-07-16 23:42:00,74.9,72.7,30.27,WSW,242,0.0,0.0,93,0.00,,,0.00,WUHU216DAVISVP2,2013-07-17 03:42:00,
2013-07-16 23:48:00,74.9,72.7,30.27,WSW,242,0.0,0.0,93,0.00,,,0.00,WUHU216DAVISVP2,2013-07-17 03:48:00,
2013-07-16 23:53:00,74.8,72.6,30.27,WSW,242,0.0,0.0,93,0.00,,,0.00,WUHU216DAVISVP2,2013-07-17 03:53:00,
2013-07-16 23:58:00,74.7,72.5,30.27,WSW,242,0.0,0.0,93,0.00,,,0.00,WUHU216DAVISVP2,2013-07-17 03:58:00,